period_start,C,m1,H,J0,J1,J2,J3,J4,J5,JA,JB,JC,JD,JJ,JK,JN,#
2016-04-11 00:00:11,0.09,0.66,0.00,17.06,22.10,25.85,14.93,50.34,1017.60,2058.15,3236.46,3001.76,3389.29,600.03,608.91,7.18,0000 0000 0000 0000 000000
2016-04-11 00:05:12,0.10,0.66,0.00,17.09,22.13,25.87,15.02,50.52,1017.59,2058.02,3234.23,3000.18,3387.34,599.85,608.46,7.23,0000 0000 0000 0000 000000
2016-04-11 00:10:13,0.11,0.67,0.00,17.13,22.18,25.86,14.95,50.34,1017.59,2058.00,3231.99,2998.50,3385.40,600.21,608.89,7.28,0000 0000 0000 0000 000000
2016-04-11 00:15:14,0.11,0.68,0.00,17.20,22.21,25.84,14.97,50.57,1017.59,2058.00,3229.65,2996.82,3383.47,599.79,608.32,7.33,0000 0000 0000 0000 000000
2016-04-11 00:20:16,0.10,0.68,0.00,17.24,22.26,25.98,14.97,50.42,1017.59,2057.98,3227.39,2995.23,3381.59,600.16,608.69,7.38,0000 0000 0000 0000 000000
2016-04-11 00:25:17,0.11,0.69,0.00,17.26,22.29,26.01,14.96,50.60,1017.56,2057.95,3225.17,2993.61,3379.71,600.42,608.72,7.43,0000 0000 0000 0000 000000
2016-04-11 00:30:18,0.06,0.69,0.00,17.32,22.33,26.05,14.91,50.34,1017.57,2057.63,3222.81,2991.96,3377.75,600.13,608.39,7.48,0000 0000 0000 0000 000000
2016-04-11 00:35:19,0.07,0.69,0.00,17.38,22.37,25.94,15.01,50.43,1017.58,2057.15,3220.52,2990.31,3375.84,600.31,608.56,7.53,0000 0000 0000 0000 000000
2016-04-11 00:40:21,0.11,0.70,0.00,17.42,22.40,25.90,14.94,50.25,1017.59,2057.02,3218.32,2988.71,3373.98,599.96,608.06,7.58,0000 0000 0000 0000 000000
2016-04-11 00:45:22,0.11,0.71,0.00,17.48,22.44,25.93,15.02,50.42,1017.59,2057.00,3216.06,2987.08,3372.03,599.92,607.93,7.63,0000 0000 0000 0000 000000
2016-04-11 00:50:23,0.11,0.71,0.00,17.51,22.48,26.13,14.89,50.39,1017.59,2056.98,3213.80,2985.44,3370.11,599.85,607.73,7.68,0000 0000 0000 0000 000000
2016-04-11 00:55:25,0.11,0.72,0.00,17.56,22.51,26.20,14.92,50.39,1017.58,2056.97,3211.52,2983.79,3368.15,599.87,607.61,7.73,0000 0000 0000 0000 000000
2016-04-11 01:00:26,0.08,0.72,0.00,17.60,22.55,26.25,14.89,50.31,1017.52,2056.82,3209.26,2982.14,3366.24,599.83,607.55,7.78,0000 0000 0000 0000 000000
2016-04-11 01:05:27,0.06,0.73,0.00,17.66,22.59,26.14,14.86,50.43,1017.52,2056.25,3206.97,2980.52,3364.35,599.85,607.42,7.83,0000 0000 0000 0000 000000
2016-04-11 01:10:29,0.10,0.73,0.00,17.71,22.63,26.35,14.93,50.44,1017.52,2056.05,3204.62,2978.81,3362.41,600.16,607.57,7.88,0000 0000 0000 0000 000000
2016-04-11 01:15:30,0.11,0.74,0.00,17.77,22.68,26.26,14.88,50.33,1017.55,2056.01,3202.34,2977.20,3360.45,599.95,607.28,7.93,0000 0000 0000 0000 000000
2016-04-11 01:20:31,0.11,0.74,0.00,17.82,22.72,26.31,14.94,50.37,1017.52,2056.00,3199.96,2975.49,3358.48,600.27,607.34,7.98,0000 0000 0000 0000 000000
2016-04-11 01:25:32,0.11,0.75,0.00,17.86,22.77,26.35,14.94,50.54,1017.51,2055.98,3197.92,2973.82,3356.61,600.23,607.31,8.03,0000 0000 0000 0000 000000
2016-04-11 01:30:34,0.10,0.75,0.00,17.91,22.81,26.34,14.93,50.47,1017.36,2055.90,3195.59,2972.18,3354.67,599.98,606.89,8.08,0000 0000 0000 0000 000000
2016-04-11 01:35:35,0.05,0.76,0.00,17.94,22.86,26.46,14.90,50.45,1017.50,2055.31,3193.26,2970.49,3352.73,600.34,607.36,8.14,0000 0000 0000 0000 000000
2016-04-11 01:40:36,0.10,0.76,0.00,18.00,22.90,26.48,14.90,50.38,1017.55,2055.04,3191.00,2968.79,3350.75,599.83,606.73,8.19,0000 0000 0000 0000 000000
2016-04-11 01:45:37,0.10,0.77,0.00,18.07,22.95,26.47,14.98,50.50,1017.43,2055.00,3188.74,2967.17,3348.82,600.43,607.03,8.24,0000 0000 0000 0000 000000
2016-04-11 01:50:39,0.11,0.77,0.00,18.11,23.00,26.52,14.90,50.56,1017.32,2054.99,3186.43,2965.44,3346.82,600.25,606.72,8.29,0000 0000 0000 0000 000000
2016-04-11 01:55:40,0.11,0.78,0.00,18.16,23.06,26.52,14.93,50.61,1017.26,2054.96,3184.13,2963.71,3344.81,600.38,606.71,8.34,0000 0000 0000 0000 000000
2016-04-11 02:00:41,0.06,0.78,0.00,18.19,23.11,26.55,14.87,50.31,1017.32,2054.51,3181.79,2961.99,3342.79,599.89,606.07,8.39,0000 0000 0000 0000 000000
2016-04-11 02:05:42,0.09,0.79,0.00,18.25,23.16,26.65,14.82,49.98,1017.31,2054.07,3179.40,2960.31,3340.81,600.08,606.23,8.44,0000 0000 0000 0000 000000
2016-04-11 02:10:43,0.12,0.79,0.00,18.29,23.21,26.68,14.86,50.17,1017.22,2054.01,3177.11,2958.60,3338.85,599.80,605.82,8.49,0000 0000 0000 0000 000000
2016-04-11 02:15:45,0.11,0.80,0.00,18.35,23.27,26.73,14.87,50.33,1017.15,2053.99,3174.84,2956.89,3336.86,600.03,605.90,8.54,0000 0000 0000 0000 000000
2016-04-11 02:20:46,0.12,0.80,0.00,18.39,23.32,26.78,14.87,50.23,1017.13,2053.96,3172.40,2955.15,3334.78,600.35,606.22,8.59,0000 0000 0000 0000 000000
2016-04-11 02:25:48,0.06,0.81,0.00,18.45,23.36,26.89,14.86,50.08,1017.12,2053.62,3170.01,2953.41,3332.81,599.96,605.58,8.64,0000 0000 0000 0000 000000
2016-04-11 02:30:49,0.09,0.81,0.00,18.50,23.41,26.88,14.92,50.01,1017.11,2053.05,3167.59,2951.65,3330.74,600.40,605.94,8.69,0000 0000 0000 0000 000000
2016-04-11 02:35:50,0.11,0.82,0.00,18.53,23.46,26.90,14.87,50.04,1017.12,2053.00,3165.31,2949.99,3328.78,599.96,605.25,8.74,0000 0000 0000 0000 000000
2016-04-11 02:40:51,0.11,0.82,0.00,18.56,23.51,26.99,14.87,50.22,1017.12,2052.99,3162.97,2948.25,3326.81,599.97,605.35,8.79,0000 0000 0000 0000 000000
2016-04-11 02:45:52,0.11,0.83,0.00,18.63,23.56,27.00,14.76,50.02,1017.17,2052.93,3160.65,2946.55,3324.88,599.73,605.03,8.84,0000 0000 0000 0000 000000
2016-04-11 02:50:53,0.06,0.83,0.00,18.66,23.60,27.10,14.89,50.23,1017.14,2052.44,3158.33,2944.93,3323.01,599.97,605.29,8.89,0000 0000 0000 0000 000000
2016-04-11 02:55:54,0.09,0.84,0.00,18.72,23.65,27.18,14.89,50.15,1017.17,2052.07,3155.94,2943.30,3321.04,599.87,605.02,8.94,0000 0000 0000 0000 000000
2016-04-11 03:00:56,0.11,0.84,0.00,18.78,23.69,27.16,14.82,50.14,1017.19,2052.01,3153.65,2941.62,3319.16,600.09,605.09,8.99,0000 0000 0000 0000 000000
2016-04-11 03:05:57,0.10,0.85,0.00,18.81,23.74,27.22,14.91,50.02,1017.17,2052.00,3151.48,2940.06,3317.26,600.37,605.04,9.04,0000 0000 0000 0000 000000
2016-04-11 03:10:58,0.11,0.85,0.00,18.85,23.78,27.29,14.80,50.10,1017.26,2051.98,3149.19,2938.44,3315.37,600.03,604.92,9.09,0000 0000 0000 0000 000000
2016-04-11 03:15:59,0.10,0.86,0.00,18.91,23.82,27.27,14.81,50.23,1017.32,2051.86,3146.98,2936.77,3313.54,600.13,604.74,9.14,0000 0000 0000 0000 000000
2016-04-11 03:21:01,0.04,0.86,0.00,18.97,23.86,27.41,14.91,50.26,1017.35,2051.24,3144.59,2935.23,3311.69,600.20,604.88,9.19,0000 0000 0000 0000 000000
2016-04-11 03:26:02,0.10,0.87,0.00,19.02,23.90,27.46,14.85,50.24,1017.39,2051.03,3142.40,2933.65,3309.82,599.98,604.63,9.24,0000 0000 0000 0000 000000
2016-04-11 03:31:03,0.10,0.87,0.00,19.06,23.94,27.48,14.82,50.12,1017.41,2051.01,3140.34,2932.12,3308.03,599.75,604.37,9.29,0000 0000 0000 0000 000000
2016-04-11 03:36:05,0.12,0.88,0.00,19.12,23.97,27.56,14.84,50.32,1017.40,2050.99,3138.13,2930.54,3306.13,599.98,604.50,9.34,0000 0000 0000 0000 000000
2016-04-11 03:41:06,0.10,0.88,0.00,19.15,24.01,27.57,14.86,50.17,1017.33,2050.98,3136.00,2928.99,3304.44,600.03,604.32,9.39,0000 0000 0000 0000 000000
2016-04-11 03:46:07,0.09,0.89,0.00,19.19,24.04,27.63,14.84,50.12,1017.41,2050.88,3134.13,2927.57,3302.68,600.44,604.65,9.44,0000 0000 0000 0000 000000
2016-04-11 03:51:08,0.05,0.89,0.00,19.21,24.08,27.68,14.78,50.21,1017.41,2050.36,3131.88,2925.95,3300.85,600.05,604.21,9.49,0000 0000 0000 0000 000000
2016-04-11 03:56:10,0.08,0.89,0.00,19.23,24.11,27.73,14.84,50.20,1017.45,2050.09,3129.73,2924.50,3299.17,599.94,604.17,9.54,0000 0000 0000 0000 000000
2016-04-11 04:01:11,0.10,0.90,0.00,19.28,24.15,27.74,14.84,50.32,1017.46,2050.01,3127.67,2922.93,3297.39,599.92,604.09,9.59,0000 0000 0000 0000 000000
2016-04-11 04:06:12,0.10,0.90,0.00,19.32,24.19,27.80,14.83,50.12,1017.44,2050.00,3125.64,2921.56,3295.72,599.99,603.97,9.64,0000 0000 0000 0000 000000
2016-04-11 04:11:13,0.11,0.91,0.00,19.36,24.23,27.86,14.82,50.08,1017.40,2050.00,3123.45,2919.98,3293.82,600.12,604.06,9.69,0000 0000 0000 0000 000000
2016-04-11 04:16:14,0.11,0.92,0.00,19.39,24.26,27.86,14.71,49.96,1017.32,2049.95,3121.23,2918.43,3291.98,599.22,603.09,9.74,0000 0000 0000 0000 000000
2016-04-11 04:21:15,0.08,0.92,0.00,19.43,24.30,27.90,14.79,50.11,1017.16,2049.75,3119.12,2916.78,3290.20,600.00,603.63,9.79,0000 0000 0000 0000 000000
2016-04-11 04:26:16,0.05,0.92,0.00,19.46,24.33,28.00,14.79,50.32,1017.13,2049.18,3116.90,2915.34,3288.50,599.99,603.55,9.84,0000 0000 0000 0000 000000
2016-04-11 04:31:18,0.11,0.93,0.00,19.53,24.37,28.02,14.86,50.32,1017.15,2049.03,3114.79,2913.81,3286.76,600.12,603.54,9.89,0000 0000 0000 0000 000000
2016-04-11 04:36:19,0.10,0.93,0.00,19.59,24.41,28.09,14.76,50.15,1017.20,2049.01,3112.79,2912.35,3284.98,599.80,603.16,9.94,0000 0000 0000 0000 000000
2016-04-11 04:41:20,0.11,0.94,0.00,19.63,24.45,28.13,14.71,50.07,1017.23,2049.00,3110.74,2910.78,3283.22,599.46,602.86,9.99,0000 0000 0000 0000 000000
2016-04-11 04:46:22,0.09,0.94,0.00,19.68,24.50,28.20,14.79,50.17,1017.14,2048.97,3108.68,2909.27,3281.43,599.87,603.04,10.04,0000 0000 0000 0000 000000
2016-04-11 04:51:23,0.08,0.95,0.00,19.72,24.54,28.27,14.86,50.23,1017.14,2048.79,3106.59,2907.70,3279.69,600.13,603.08,10.09,0000 0000 0000 0000 000000
2016-04-11 04:56:24,0.06,0.95,0.00,19.75,24.59,28.25,14.83,50.23,1017.13,2048.34,3104.38,2906.17,3277.90,599.89,602.72,10.14,0000 0000 0000 0000 000000
2016-04-11 05:01:26,0.09,0.96,0.00,19.81,24.65,28.28,14.76,50.34,1017.13,2048.02,3102.35,2904.62,3276.10,599.96,602.79,10.19,0000 0000 0000 0000 000000
2016-04-11 05:06:27,0.11,0.96,0.00,19.86,24.70,28.34,14.77,50.26,1017.12,2048.00,3100.25,2903.05,3274.33,600.11,602.84,10.24,0000 0000 0000 0000 000000
2016-04-11 05:11:28,0.10,0.97,0.00,19.90,24.75,28.34,14.83,50.38,1017.11,2047.94,3098.11,2901.51,3272.46,600.16,602.79,10.29,0000 0000 0000 0000 000000
2016-04-11 05:16:30,0.05,0.97,0.00,19.94,24.81,28.42,14.83,50.43,1017.12,2047.42,3095.97,2899.89,3270.60,600.21,602.71,10.34,0000 0000 0000 0000 000000
2016-04-11 05:21:31,0.08,0.98,0.00,19.99,24.86,28.46,14.77,50.29,1017.11,2047.03,3093.94,2898.34,3268.79,599.97,602.58,10.39,0000 0000 0000 0000 000000
2016-04-11 05:26:32,0.11,0.98,0.00,20.04,24.92,28.50,14.78,50.39,1017.12,2047.00,3091.86,2896.79,3267.02,600.40,602.71,10.45,0000 0000 0000 0000 000000
2016-04-11 05:31:34,0.11,0.99,0.00,20.09,24.98,28.51,14.85,50.26,1017.12,2047.00,3089.74,2895.20,3265.12,600.28,602.50,10.50,0000 0000 0000 0000 000000
2016-04-11 05:36:35,0.11,0.99,0.00,20.14,25.03,28.55,14.77,50.16,1017.11,2046.99,3087.56,2893.58,3263.31,600.01,602.27,10.55,0000 0000 0000 0000 000000
2016-04-11 05:41:36,0.10,1.00,0.00,20.18,25.09,28.59,14.78,50.15,1017.11,2046.93,3085.36,2891.95,3261.51,599.90,601.82,10.60,0000 0000 0000 0000 000000
2016-04-11 05:46:38,0.04,1.00,0.00,20.21,25.15,28.67,14.77,50.20,1017.11,2046.33,3083.21,2890.36,3259.67,600.08,602.11,10.65,0000 0000 0000 0000 000000
2016-04-11 05:51:39,0.11,1.00,0.00,20.28,25.20,28.68,14.79,50.33,1017.11,2046.01,3080.93,2888.71,3257.81,600.11,601.99,10.70,0000 0000 0000 0000 000000
2016-04-11 05:56:40,0.10,1.01,0.00,20.33,25.26,28.70,14.76,50.09,1017.11,2046.00,3078.82,2887.11,3255.95,600.33,602.06,10.75,0000 0000 0000 0000 000000
2016-04-11 06:01:41,0.11,1.02,0.00,20.35,25.31,28.77,14.70,50.18,1017.11,2045.99,3076.71,2885.60,3254.13,599.69,601.46,10.80,0000 0000 0000 0000 000000
2016-04-11 06:06:42,0.06,1.02,0.00,20.61,25.36,28.86,14.77,50.06,1017.11,2045.64,3074.42,2883.97,3252.28,599.95,601.14,10.85,0000 0000 0000 0000 000000
2016-04-11 06:11:44,0.07,1.02,0.00,21.45,25.43,28.67,14.68,49.86,1017.12,2045.09,3072.38,2882.41,3250.43,600.20,599.64,10.90,0000 0000 0000 0000 000000
2016-04-11 06:16:45,0.12,1.03,0.00,21.90,25.51,28.72,14.68,50.08,1017.11,2044.99,3070.44,2880.64,3248.42,600.33,598.89,10.95,0000 0000 0000 0000 000000
2016-04-11 06:21:47,0.07,1.03,0.00,22.20,25.61,28.75,14.55,50.08,1017.11,2044.64,3068.17,2878.90,3246.33,599.78,597.80,11.00,0000 0000 0000 0000 000000
2016-04-11 06:26:48,0.09,1.04,0.00,22.42,25.72,28.88,14.48,49.83,1017.11,2044.03,3065.64,2877.15,3244.18,599.77,597.26,11.05,0000 0000 0000 0000 000000
2016-04-11 06:31:49,0.13,1.04,0.00,22.59,25.84,29.02,14.57,49.98,1017.11,2043.96,3063.16,2875.27,3242.08,599.81,596.97,11.10,0000 0000 0000 0000 000000
2016-04-11 06:36:50,0.04,1.05,0.00,22.72,25.96,29.15,14.55,49.94,1017.11,2043.18,3060.74,2873.37,3239.92,600.00,597.05,11.15,0000 0000 0000 0000 000000
2016-04-11 06:41:51,0.12,1.05,0.00,22.83,26.08,29.28,14.56,49.92,1017.12,2042.95,3058.37,2871.49,3237.68,600.23,596.92,11.20,0000 0000 0000 0000 000000
2016-04-11 06:46:53,0.05,1.06,0.00,22.93,26.21,29.41,14.52,49.82,1017.12,2042.17,3055.97,2869.54,3235.42,600.02,596.49,11.25,0000 0000 0000 0000 000000
2016-04-11 06:51:54,0.13,1.06,0.00,23.00,26.33,29.52,14.53,49.99,1017.13,2041.90,3053.51,2867.59,3233.15,599.98,596.31,11.30,0000 0000 0000 0000 000000
2016-04-11 06:56:56,0.06,1.06,0.00,23.06,26.44,29.63,14.53,49.83,1017.13,2041.08,3050.91,2865.58,3230.85,599.77,596.02,11.35,0000 0000 0000 0000 000000
2016-04-11 07:01:57,0.11,1.07,0.00,23.10,26.55,29.76,14.51,49.87,1017.14,2040.86,3048.42,2863.70,3228.61,600.18,596.38,11.40,0000 0000 0000 0000 000000
2016-04-11 07:06:58,0.06,1.07,0.00,23.15,26.65,29.86,14.53,49.66,1017.16,2040.08,3046.01,2861.86,3226.50,599.45,595.50,11.45,0000 0000 0000 0000 000000
2016-04-11 07:11:59,0.12,1.08,0.00,23.18,26.75,29.97,14.49,49.61,1017.14,2039.98,3043.62,2860.10,3224.43,599.69,595.66,11.50,0000 0000 0000 0000 000000
2016-04-11 07:17:00,0.04,1.08,0.00,23.21,26.85,30.07,14.53,49.67,1017.26,2039.32,3041.29,2858.35,3222.44,599.78,596.00,11.55,0000 0000 0000 0000 000000
2016-04-11 07:22:02,0.12,1.09,0.00,23.25,26.93,30.16,14.45,49.67,1017.36,2038.99,3039.03,2856.57,3220.40,599.51,595.62,11.60,0000 0000 0000 0000 000000
2016-04-11 07:27:03,0.06,1.09,0.00,23.27,27.01,30.24,14.48,49.48,1017.28,2038.57,3036.65,2854.81,3218.35,599.99,595.86,11.65,0000 0000 0000 0000 000000
2016-04-11 07:32:04,0.08,1.10,0.00,23.31,27.09,30.35,14.54,49.65,1017.37,2038.03,3034.45,2853.26,3216.50,599.99,595.89,11.70,0000 0000 0000 0000 000000
2016-04-11 07:37:06,0.12,1.10,0.00,23.32,27.16,30.41,14.51,49.29,1017.34,2037.99,3032.17,2851.56,3214.56,599.92,595.73,11.75,0000 0000 0000 0000 000000
2016-04-11 07:42:07,0.07,1.11,0.00,23.35,27.23,30.47,14.55,49.58,1017.16,2037.63,3029.97,2849.91,3212.64,599.97,595.58,11.80,0000 0000 0000 0000 000000
2016-04-11 07:47:08,0.07,1.11,0.00,23.36,27.30,30.53,14.63,49.63,1017.16,2037.03,3027.74,2848.30,3210.75,600.43,596.07,11.85,0000 0000 0000 0000 000000
2016-04-11 07:52:09,0.11,1.11,0.00,23.39,27.36,30.56,14.55,49.56,1017.21,2037.00,3025.66,2846.71,3209.00,599.86,595.50,11.90,0000 0000 0000 0000 000000
2016-04-11 07:57:11,0.09,1.12,0.00,23.40,27.42,30.62,14.48,49.52,1017.16,2036.93,3023.57,2845.18,3207.17,599.84,595.19,11.95,0000 0000 0000 0000 000000
2016-04-11 08:02:12,0.04,1.12,0.00,23.42,27.47,30.66,14.56,49.52,1017.17,2036.27,3021.36,2843.57,3205.37,600.09,595.67,12.00,0000 0000 0000 0000 000000
2016-04-11 08:07:13,0.09,1.13,0.00,23.43,27.52,30.71,14.51,49.50,1017.12,2036.01,3019.34,2842.08,3203.58,599.70,595.17,12.05,0000 0000 0000 0000 000000
2016-04-11 08:12:15,0.12,1.13,0.00,23.45,27.57,30.73,14.51,49.22,1017.14,2036.00,3017.14,2840.54,3201.77,600.38,595.82,12.10,0000 0000 0000 0000 000000
2016-04-11 08:17:16,0.10,1.14,0.00,23.47,27.62,30.77,14.58,49.46,1017.18,2035.90,3015.01,2838.99,3199.95,600.41,595.86,12.15,0000 0000 0000 0000 000000
2016-04-11 08:22:17,0.04,1.14,0.00,23.49,27.67,30.80,14.53,49.27,1017.18,2035.36,3012.87,2837.52,3198.33,599.92,595.27,12.20,0000 0000 0000 0000 000000
2016-04-11 08:27:18,0.09,1.15,0.00,23.49,27.71,30.83,14.51,49.23,1017.22,2035.01,3010.90,2835.95,3196.65,600.09,595.48,12.25,0000 0000 0000 0000 000000
2016-04-11 08:32:19,0.11,1.15,0.00,23.50,27.75,30.85,14.60,49.19,1017.26,2035.00,3008.86,2834.54,3194.93,600.29,595.76,12.30,0000 0000 0000 0000 000000
2016-04-11 08:37:20,0.09,1.16,0.00,23.51,27.79,30.88,14.48,48.98,1017.34,2034.99,3007.04,2833.10,3193.25,599.72,595.08,12.35,0000 0000 0000 0000 000000
2016-04-11 08:42:21,0.09,1.16,0.00,23.51,27.83,30.91,14.63,49.42,1017.42,2034.91,3005.12,2831.72,3191.69,600.28,595.87,12.40,0000 0000 0000 0000 000000
2016-04-11 08:47:23,0.03,1.16,0.00,23.52,27.86,30.92,14.60,49.20,1017.36,2034.28,3003.13,2830.30,3189.98,600.30,595.72,12.45,0000 0000 0000 0000 000000
2016-04-11 08:52:24,0.09,1.17,0.00,23.54,27.90,30.95,14.54,49.08,1017.28,2034.02,3001.17,2828.85,3188.35,599.99,595.26,12.50,0000 0000 0000 0000 000000
2016-04-11 08:57:26,0.10,1.17,0.00,23.54,27.93,30.99,14.51,49.16,1017.29,2034.00,2999.19,2827.53,3186.70,599.80,595.15,12.55,0000 0000 0000 0000 000000
2016-04-11 09:02:27,0.09,1.18,0.00,23.55,27.96,31.01,14.49,49.23,1017.23,2034.00,2997.23,2826.15,3185.22,599.83,595.08,12.60,0000 0000 0000 0000 000000
2016-04-11 09:07:28,0.10,1.18,0.00,23.55,27.98,31.03,14.53,49.05,1017.16,2033.99,2995.38,2824.79,3183.65,599.81,595.10,12.65,0000 0000 0000 0000 000000
2016-04-11 09:12:30,0.09,1.19,0.00,23.55,28.01,31.05,14.55,49.18,1017.12,2033.97,2993.53,2823.58,3182.21,600.16,595.38,12.70,0000 0000 0000 0000 000000
2016-04-11 09:17:31,0.07,1.19,0.00,23.56,28.03,31.07,14.52,48.96,1017.13,2033.76,2991.70,2822.30,3180.65,599.72,595.00,12.75,0000 0000 0000 0000 000000
2016-04-11 09:22:32,0.05,1.20,0.00,23.55,28.06,31.10,14.53,49.22,1017.12,2033.38,2989.76,2820.91,3179.17,599.87,595.17,12.80,0000 0000 0000 0000 000000
2016-04-11 09:27:33,0.08,1.20,0.00,23.56,28.08,31.12,14.62,49.36,1017.12,2033.08,2987.84,2819.58,3177.59,600.46,595.70,12.86,0000 0000 0000 0000 000000
2016-04-11 09:32:35,0.08,1.20,0.00,23.55,28.11,31.13,14.54,49.16,1017.12,2033.02,2986.01,2818.35,3176.11,600.06,595.25,12.91,0000 0000 0000 0000 000000
2016-04-11 09:37:36,0.08,1.21,0.00,23.57,28.13,31.14,14.54,49.07,1017.12,2033.00,2984.35,2817.13,3174.68,599.96,595.13,12.96,0000 0000 0000 0000 000000
2016-04-11 09:42:37,0.10,1.21,0.00,23.56,28.15,31.16,14.52,49.40,1017.12,2033.00,2982.56,2815.84,3173.17,599.81,595.06,13.01,0000 0000 0000 0000 000000
2016-04-11 09:47:39,0.10,1.22,0.00,23.57,28.17,31.17,14.53,49.42,1017.11,2033.00,2980.72,2814.64,3171.72,600.14,595.30,13.06,0000 0000 0000 0000 000000
2016-04-11 09:52:40,0.08,1.22,0.00,23.58,28.18,31.19,14.51,49.26,1017.11,2032.98,2978.98,2813.48,3170.33,599.79,594.92,13.11,0000 0000 0000 0000 000000
2016-04-11 09:57:41,0.08,1.23,0.00,23.59,28.20,31.21,14.59,49.13,1017.12,2032.97,2977.23,2812.31,3168.90,599.92,595.01,13.16,0000 0000 0000 0000 000000
2016-04-11 10:02:42,0.08,1.23,0.00,23.60,28.21,31.22,14.59,49.19,1017.12,2032.95,2975.49,2811.06,3167.55,600.27,595.35,13.21,0000 0000 0000 0000 000000
2016-04-11 10:07:43,0.08,1.24,0.00,23.60,28.22,31.24,14.56,49.67,1017.12,2032.70,2973.54,2809.75,3166.05,599.97,595.10,13.26,0000 0000 0000 0000 000000
2016-04-11 10:12:44,0.07,1.24,0.00,23.60,28.23,31.24,14.58,49.38,1017.13,2032.44,2971.75,2808.59,3164.65,599.90,595.01,13.31,0000 0000 0000 0000 000000
2016-04-11 10:17:46,0.05,1.24,0.00,23.60,28.25,31.26,14.51,49.19,1017.17,2032.16,2970.02,2807.43,3163.16,599.91,595.08,13.36,0000 0000 0000 0000 000000
2016-04-11 10:22:47,0.08,1.25,0.00,23.60,28.25,31.27,14.58,49.27,1017.19,2032.07,2968.49,2806.27,3161.77,599.69,594.78,13.41,0000 0000 0000 0000 000000
2016-04-11 10:27:48,0.08,1.25,0.00,23.59,28.26,31.28,14.57,49.11,1017.17,2032.03,2966.73,2805.08,3160.52,599.65,594.83,13.46,0000 0000 0000 0000 000000
2016-04-11 10:32:50,0.08,1.25,0.00,23.59,28.27,31.30,14.55,49.25,1017.13,2032.01,2965.09,2803.97,3159.29,599.84,594.99,13.51,0000 0000 0000 0000 000000
2016-04-11 10:37:51,0.09,1.26,0.00,23.59,28.27,31.31,14.54,49.14,1017.15,2032.00,2963.28,2802.75,3157.78,599.83,595.04,13.56,0000 0000 0000 0000 000000
2016-04-11 10:42:52,0.08,1.26,0.00,23.58,28.27,31.31,14.55,49.15,1017.15,2032.00,2961.82,2801.71,3156.51,600.19,595.35,13.61,0000 0000 0000 0000 000000
2016-04-11 10:47:53,0.08,1.27,0.00,23.58,28.27,31.32,14.54,49.12,1017.21,2032.00,2960.19,2800.67,3155.34,599.90,595.12,13.66,0000 0000 0000 0000 000000
2016-04-11 10:52:54,0.08,1.27,0.00,23.57,28.27,31.33,14.53,49.13,1017.19,2032.00,2958.52,2799.57,3153.95,599.91,595.18,13.71,0000 0000 0000 0000 000000
2016-04-11 10:57:56,0.08,1.28,0.00,23.55,28.27,31.32,14.53,49.02,1017.25,2032.00,2956.98,2798.49,3152.75,599.67,594.99,13.76,0000 0000 0000 0000 000000
2016-04-11 11:02:57,0.08,1.28,0.00,23.54,28.27,31.34,14.52,49.05,1017.30,2032.00,2955.21,2797.40,3151.55,600.16,595.47,13.81,0000 0000 0000 0000 000000
2016-04-11 11:07:58,0.08,1.29,0.00,23.52,28.27,31.33,14.50,49.16,1017.26,2032.00,2953.55,2796.29,3150.33,599.87,595.24,13.86,0000 0000 0000 0000 000000
2016-04-11 11:12:59,0.07,1.29,0.00,23.52,28.27,31.32,14.54,49.17,1017.25,2032.00,2952.14,2795.27,3149.07,599.59,595.05,13.91,0000 0000 0000 0000 000000
2016-04-11 11:18:01,0.09,1.29,0.00,23.50,28.26,31.33,14.53,48.97,1017.25,2032.00,2950.38,2794.17,3147.80,599.85,595.35,13.96,0000 0000 0000 0000 000000
2016-04-11 11:23:02,0.07,1.30,0.00,23.50,28.25,31.34,14.57,48.83,1017.20,2032.00,2949.01,2793.15,3146.50,599.86,595.28,14.01,0000 0000 0000 0000 000000
2016-04-11 11:28:03,0.07,1.30,0.00,23.47,28.25,31.33,14.50,49.17,1017.14,2032.00,2947.62,2792.18,3145.41,599.78,595.17,14.06,0000 0000 0000 0000 000000
2016-04-11 11:33:05,0.07,1.31,0.00,23.46,28.25,31.33,14.57,49.17,1017.21,2032.00,2946.12,2791.20,3144.22,600.09,595.47,14.11,0000 0000 0000 0000 000000
2016-04-11 11:38:06,0.08,1.31,0.00,23.44,28.25,31.32,14.62,49.20,1017.27,2032.00,2944.52,2790.19,3143.08,599.82,595.46,14.16,0000 0000 0000 0000 000000
2016-04-11 11:43:08,0.07,1.31,0.00,23.42,28.25,31.31,14.63,49.06,1017.34,2032.00,2943.12,2789.18,3141.90,600.31,595.83,14.21,0000 0000 0000 0000 000000
2016-04-11 11:48:09,0.09,1.32,0.00,23.41,28.23,31.30,14.56,49.21,1017.37,2032.00,2941.41,2788.10,3140.67,600.08,595.83,14.26,0000 0000 0000 0000 000000
2016-04-11 11:53:10,0.08,1.32,0.00,23.38,28.22,31.29,14.58,49.23,1017.42,2032.00,2939.76,2787.07,3139.45,600.00,595.75,14.31,0000 0000 0000 0000 000000
2016-04-11 11:58:12,0.08,1.33,0.00,23.37,28.22,31.29,14.66,49.13,1017.21,2032.00,2938.15,2786.00,3138.26,600.39,596.01,14.36,0000 0000 0000 0000 000000
2016-04-11 12:03:13,0.08,1.33,0.00,23.36,28.21,31.29,14.55,49.03,1017.16,2032.00,2936.51,2784.97,3137.06,600.03,595.66,14.41,0000 0000 0000 0000 000000
2016-04-11 12:08:14,0.07,1.33,0.00,23.34,28.20,31.28,14.62,49.23,1017.12,2032.00,2935.04,2784.04,3135.90,600.31,595.87,14.46,0000 0000 0000 0000 000000
2016-04-11 12:13:16,0.07,1.34,0.00,23.31,28.20,31.28,14.48,48.95,1017.11,2032.00,2933.54,2782.97,3134.81,599.72,595.37,14.51,0000 0000 0000 0000 000000
2016-04-11 12:18:17,0.08,1.34,0.00,23.29,28.20,31.27,14.57,49.00,1017.11,2032.00,2931.94,2781.91,3133.67,600.12,595.81,14.56,0000 0000 0000 0000 000000
2016-04-11 12:23:19,0.08,1.35,0.00,23.27,28.18,31.26,14.58,49.08,1017.11,2032.00,2930.31,2780.82,3132.47,600.05,595.82,14.61,0000 0000 0000 0000 000000
2016-04-11 12:28:20,0.08,1.35,0.00,23.26,28.17,31.26,14.63,49.24,1017.11,2032.01,2928.72,2779.79,3131.34,600.02,595.90,14.66,0000 0000 0000 0000 000000
2016-04-11 12:33:21,0.07,1.36,0.00,23.24,28.17,31.23,14.55,49.22,1017.11,2032.01,2927.42,2778.75,3130.11,599.76,595.76,14.71,0000 0000 0000 0000 000000
2016-04-11 12:38:23,0.08,1.36,0.00,23.22,28.17,31.23,14.53,49.23,1017.08,2032.01,2925.74,2777.72,3128.91,600.04,595.90,14.76,0000 0000 0000 0000 000000
2016-04-11 12:43:24,0.07,1.36,0.00,23.21,28.16,31.23,14.57,49.17,1017.01,2032.03,2924.28,2776.76,3127.78,599.86,595.71,14.81,0000 0000 0000 0000 000000
2016-04-11 12:48:26,0.08,1.37,0.00,23.18,28.15,31.21,14.65,49.25,1016.88,2032.02,2922.56,2775.72,3126.53,600.18,595.97,14.86,0000 0000 0000 0000 000000
2016-04-11 12:53:27,0.08,1.37,0.00,23.16,28.15,31.19,14.51,49.21,1016.72,2032.04,2921.01,2774.65,3125.42,599.47,595.27,14.91,0000 0000 0000 0000 000000